Location: Fontevrault
(47.1823°N, 0.0493°E)
Time: 11:20:05
(UTC+00:00)

FALCON 9 DEB - Pass Details

Date: 16 June 2021
Orbit: 359 x 376 km, 53.0° (Epoch: 27 July)

Event Time Altitude Azimuth Distance (km) Brightness Sun altitude
Exits shadow 23:21:59 30° 258° (WSW) 718 4.1 -18.9°
Maximum altitude 23:23:21 69° 334° (NNW) 416 3.1 -18.9°
Drops below altitude 10° 23:26:30 10° 58° (ENE) 1,409 6.0 -19.0°
Sets 23:28:34 0° 61° (ENE) 2,263 7.0 -19.1°
